[[{"header":{"parameterUnit":"m.s-1","parameterCategory":1,"la1":30.2991,"la2":30.254,"lo1":-89.0895,"lo2":-89.0444,"dy":0.0017,"dx":0.0017,"nx":28,"ny":28,"refTime":"2023-08-03T09:00:00:Z","depth":0,"parameterNumber":2,"parameterNumberName":"U-component_of_WINDS"},"data":[0,0,0,0,0,0,0,0,0,0,0,0,0,0,0,0,0,0,0,0,0,0,0,0,0,0,0,0,0,0,0,0,0,0,0,0,0,0,0,0,0,0,0,0,0,0,0,0,0,0,0,0,0,0,0,0,0,0,4.8089,4.8089,0,4.8125,4.8125,4.8126,4.7931,4.7925,4.7919,4.7914,4.7955,4.7961,4.7968,0,0,0,0,0,0,0,0,0,0,0,0,0,4.7855,4.786,4.8089,4.8089,4.809,4.8125,4.8125,4.8126,4.7932,4.7925,4.7918,4.7912,4.7953,4.7961,4.7968,0,0,0,0,0,0,0,0,0,0,0,0,0,4.793,4.7862,4.8089,4.7997,4.7989,4.8125,4.8125,4.8126,4.7933,4.7925,4.7916,4.7908,4.7951,4.796,4.7969,4.8196,0,0,4.7998,4.8002,0,0,0,0,0,0,0,0,4.7926,4.7939,4.801,4.8003,4.7995,4.8014,4.8057,4.815,4.7935,4.7955,4.7914,4.7904,4.7982,4.7988,4.8014,4.8198,4.82,4.7999,4.8005,4.8009,4.8011,0,0,0,0,0,0,0,4.7921,4.7937,4.8103,4.8011,4.8002,4.7955,4.7956,4.8074,4.8015,4.7952,4.7938,4.7945,4.7976,4.8005,4.8013,4.82,4.7999,4.8007,4.8013,4.8017,4.857,4.8578,0,0,0,0,0,0,4.7928,4.7933,4.8102,4.8104,4.7939,4.7966,4.7968,4.8017,4.8013,4.8005,4.7952,4.7936,4.7993,4.8002,4.8014,4.8276,4.8009,4.8018,4.8023,4.8561,4.8572,4.8582,0,0,0,0,0,0,4.7924,4.7945,4.81,4.8015,4.8031,4.7979,4.8036,4.8022,4.805,4.8013,4.8002,4.7992,4.7987,4.8001,4.8151,4.8275,4.8022,4.803,4.855,4.8564,4.8577,4.8804,0,0,0,0,0,0,4.7918,4.7944,4.8029,4.8018,4.8037,4.8237,4.8044,4.8029,4.8067,4.8046,4.8047,4.804,4.7981,4.8138,4.8161,4.8283,4.8038,4.8539,4.8557,4.8572,4.8786,4.8824,4.8857,0,0,0,0,0,4.791,4.8093,4.8034,4.8056,4.8141,4.8244,4.8255,4.8182,4.8078,4.8162,4.8138,4.804,4.8259,4.8155,4.8179,4.8306,4.8531,4.8552,4.8571,4.877,4.8817,4.8856,0,0,0,0,0,0,4.8121,4.809,4.8024,4.8209,4.8231,4.8211,4.8315,4.8235,4.8287,4.8265,4.8175,4.8177,4.8343,4.834,4.8225,4.8525,4.8377,4.8403,4.8519,4.8564,4.8599,4.8594,4.8046,0,0,0,0,0,4.8189,4.8274,4.8243,4.841,4.8424,4.8369,4.8411,4.8353,4.8372,4.8381,4.8367,4.8391,4.8464,4.8514,4.858,4.8786,4.8782,4.8885,4.8921,4.8951,4.8973,4.9079,4.9123,4.8648,4.8648,4.8648,0,0,4.8331,4.8324,4.8384,4.8452,4.8461,4.8552,4.8377,4.8481,4.8547,4.8397,4.8536,4.8529,4.8548,4.8727,4.8805,4.873,4.9104,4.8977,4.9,4.9006,4.9104,4.9149,4.9189,4.8662,4.8659,4.8657,0,0,4.8633,4.8638,4.8775,4.8789,4.8805,4.8767,4.8801,4.8794,4.8782,4.8921,4.8809,4.8888,4.9018,4.9035,4.9061,4.9372,4.9282,4.9397,4.9582,4.9686,4.9724,4.9756,4.9864,4.9904,4.942,4.9421,4.9421,0,4.8806,4.8937,4.8857,4.8967,4.9,4.8868,4.9006,4.9023,4.9062,4.9087,4.9003,4.9161,4.9166,4.9345,4.9421,4.9448,4.9482,4.9394,4.9725,4.9757,4.9786,4.9887,4.9928,4.9434,4.9433,4.9431,4.943,0,4.9148,4.9241,4.935,4.9387,4.9433,4.9558,4.9497,4.9553,4.9493,4.9465,4.9608,4.9609,4.9671,4.9711,4.9654,4.9882,4.9834,4.974,4.9588,4.9846,4.9939,4.9978,4.9454,4.9449,4.9445,4.9441,0,0,4.9581,4.9573,4.9614,4.9629,4.9638,4.9708,4.9828,4.9887,4.9936,4.9968,5.0064,5.0177,5.0088,5.0119,5.0063,5.0155,5.0397,5.0048,5.0047,5.0109,5.0646,5.0714,5.0761,5.034,5.0347,5.0353,5.0643,0,4.9873,5.0073,5.0005,5.0208,5.0291,5.0168,5.0271,5.0289,5.0267,5.0335,5.0311,5.039,5.0269,5.0286,5.0372,5.035,5.0503,5.0329,5.0427,5.0431,5.0421,5.081,5.0883,5.1156,5.0679,5.0685,5.069,0,5.024,5.0284,5.0496,5.0489,5.0521,5.0615,5.0663,5.0731,5.0749,5.0726,5.076,5.0685,5.0801,5.0654,5.0812,5.0694,5.0731,5.0727,5.0736,5.0738,5.0573,5.0819,5.1242,5.1282,5.0748,5.0743,5.0739,0,5.053,5.0643,5.0783,5.08,5.0797,5.0865,5.0868,5.0877,5.0917,5.0961,5.0985,5.1044,5.1075,5.1122,5.1064,5.0963,5.1231,5.1078,5.1213,5.1215,5.1271,5.1268,5.1702,5.1304,5.1303,5.1302,5.1302,0,5.086,5.0994,5.0912,5.0998,5.1144,5.1066,5.1213,5.1201,5.1211,5.1293,5.1192,5.1271,5.1192,5.1265,5.1222,5.1357,5.1374,5.1358,5.1344,5.1364,5.1366,5.1384,5.1362,5.1313,5.1311,5.1309,5.1307,0,5.1206,5.1158,5.1302,5.1287,5.1287,5.1395,5.1382,5.1461,5.1432,5.1537,5.1557,5.1513,5.1592,5.1541,5.1622,5.1593,5.177,5.1732,5.1763,5.1751,5.1887,5.1874,5.2344,5.2401,5.1971,5.1975,5.1979,0,5.1418,5.1517,5.1514,5.156,5.1568,5.1646,5.1685,5.1614,5.166,5.1687,5.1763,5.1834,5.1886,5.202,5.1995,5.2057,5.2017,5.2178,5.2025,5.2042,5.2014,5.2007,5.2016,5.2207,5.2212,5.2216,5.222,0,5.1799,5.177,5.183,5.1883,5.1933,5.1972,5.2002,5.2047,5.1974,5.2031,5.211,5.2152,5.2234,5.2305,5.2356,5.2359,5.2278,5.2269,5.2302,5.2322,5.2334,5.2325,5.1842,5.2257,5.2253,5.225,5.2248,5.2247,5.2081,5.2162,5.2172,5.2242,5.2258,5.2288,5.2361,5.2341,5.2406,5.2465,5.242,5.2514,5.2529,5.259,5.2603,5.2676,5.2611,5.2661,5.2672,5.2685,5.2702,5.2326,5.2686,5.2685,5.2684,5.2683,5.2682,0,5.2452,5.2452,5.2518,5.2563,5.2619,5.2538,5.2567,5.2619,5.2703,5.2723,5.2777,5.2868,5.2937,5.2918,5.2979,5.3041,5.3005,5.306,5.3052,5.3053,5.2759,5.2721,5.3087,5.3087,5.3087,5.3087,5.3087,5.3087,5.2651,5.2784,5.2756,5.2896,5.2895,5.2985,5.3008,5.3036,5.3052,5.3157,5.3213,5.32,5.3205,5.3266,5.3326,5.3318,5.3344,5.3412,5.3391,5.3115,5.3075,5.3036,5.3,5.3419,5.3419,5.3678,5.3681,5.3683]},{"header":{"parameterUnit":"m.s-1","parameterCategory":1,"la1":30.2991,"la2":30.254,"lo1":-89.0895,"lo2":-89.0444,"dy":0.0017,"dx":0.0017,"nx":28,"ny":28,"refTime":"2023-08-03T09:00:00:Z","depth":0,"parameterNumber":3,"parameterNumberName":"V-component_of_WINDS"},"data":[0,0,0,0,0,0,0,0,0,0,0,0,0,0,0,0,0,0,0,0,0,0,0,0,0,0,0,0,0,0,0,0,0,0,0,0,0,0,0,0,0,0,0,0,0,0,0,0,0,0,0,0,0,0,0,0,0,0,1.2738,1.2737,0,1.2601,1.26,1.2598,1.2388,1.2384,1.238,1.2377,1.2238,1.2238,1.2237,0,0,0,0,0,0,0,0,0,0,0,0,0,1.2821,1.282,1.2738,1.2736,1.2735,1.2602,1.26,1.2598,1.2388,1.2384,1.2379,1.2375,1.2238,1.2238,1.2237,0,0,0,0,0,0,0,0,0,0,0,0,0,1.2745,1.282,1.2738,1.2614,1.2602,1.2602,1.26,1.2597,1.2389,1.2384,1.2378,1.2373,1.2238,1.2238,1.2237,1.2348,0,0,1.2236,1.2236,0,0,0,0,0,0,0,0,1.2749,1.2742,1.2634,1.2623,1.2609,1.2506,1.2577,1.2514,1.2391,1.247,1.2376,1.237,1.2332,1.2323,1.231,1.2342,1.2336,1.2236,1.2236,1.2236,1.2236,0,0,0,0,0,0,0,1.2755,1.2747,1.2684,1.2633,1.2617,1.2566,1.2549,1.2565,1.2434,1.2463,1.2447,1.2434,1.2323,1.2311,1.2305,1.2334,1.2236,1.2236,1.2236,1.2236,1.2451,1.2456,0,0,0,0,0,0,1.2778,1.2752,1.2688,1.268,1.2667,1.2569,1.255,1.2545,1.2433,1.2411,1.2439,1.2424,1.2314,1.2306,1.2299,1.2421,1.2236,1.2236,1.2236,1.2445,1.2452,1.2458,0,0,0,0,0,0,1.2781,1.2775,1.2694,1.2712,1.2698,1.2574,1.2569,1.2545,1.2531,1.2415,1.2391,1.2449,1.2309,1.23,1.2338,1.2413,1.2236,1.2235,1.2438,1.2447,1.2455,1.2667,0,0,0,0,0,0,1.2784,1.2777,1.2817,1.2714,1.2698,1.2734,1.2574,1.2546,1.2531,1.2512,1.2419,1.2398,1.2304,1.2339,1.2338,1.241,1.2235,1.243,1.2442,1.2452,1.2652,1.2682,1.2707,0,0,0,0,0,1.2788,1.2882,1.282,1.2813,1.2745,1.2739,1.2729,1.2619,1.2539,1.2578,1.2504,1.2401,1.2407,1.2345,1.2341,1.2415,1.2425,1.2439,1.2451,1.264,1.2676,1.2706,0,0,0,0,0,0,1.2996,1.2866,1.2796,1.2859,1.2812,1.2703,1.2749,1.266,1.2635,1.2617,1.2482,1.2463,1.2518,1.247,1.2404,1.2517,1.24,1.2413,1.2545,1.2578,1.2605,1.2614,1.2235,0,0,0,0,0,1.305,1.3055,1.2941,1.3009,1.2989,1.2875,1.2867,1.2787,1.2732,1.2711,1.2639,1.2591,1.2581,1.2577,1.2562,1.2646,1.2622,1.2695,1.2722,1.2745,1.2757,1.2798,1.2828,1.2502,1.2502,1.2501,0,0,1.316,1.309,1.3101,1.3049,1.3002,1.3012,1.2858,1.2874,1.288,1.2713,1.2743,1.2691,1.2627,1.2689,1.2712,1.2651,1.2843,1.2762,1.2781,1.278,1.2814,1.2845,1.2873,1.2511,1.2509,1.2508,0,0,1.3364,1.3313,1.3362,1.332,1.3251,1.3175,1.3188,1.3094,1.3051,1.3081,1.2956,1.2962,1.2948,1.2908,1.2886,1.3081,1.2985,1.308,1.3221,1.3262,1.3288,1.331,1.3377,1.3403,1.3093,1.3093,1.3094,0,1.351,1.3517,1.34,1.3423,1.3404,1.3256,1.3305,1.327,1.3201,1.3192,1.3125,1.3105,1.3052,1.3102,1.315,1.3138,1.3148,1.3088,1.3293,1.3314,1.3333,1.3396,1.3422,1.3105,1.3104,1.3103,1.3101,0,1.3699,1.3707,1.3756,1.3692,1.3679,1.3717,1.3606,1.3607,1.3529,1.3461,1.3493,1.3425,1.3394,1.3401,1.3325,1.3441,1.3404,1.3318,1.3197,1.3378,1.3435,1.3458,1.3122,1.3118,1.3114,1.3111,0,0,1.4026,1.39,1.392,1.3889,1.3805,1.3809,1.3841,1.381,1.3814,1.3773,1.3796,1.379,1.3709,1.3685,1.3604,1.3641,1.3798,1.3549,1.3545,1.3596,1.392,1.3984,1.4014,1.3736,1.374,1.3743,1.3925,0,1.4212,1.4256,1.4153,1.4224,1.4229,1.409,1.4118,1.407,1.4009,1.4005,1.3937,1.3934,1.3829,1.3813,1.3844,1.3772,1.386,1.3758,1.3754,1.3756,1.3771,1.4044,1.411,1.4285,1.3947,1.395,1.3953,0,1.4432,1.4403,1.4474,1.4387,1.4385,1.4412,1.4376,1.4375,1.4319,1.4271,1.4247,1.4152,1.4178,1.4066,1.4099,1.4032,1.4025,1.3991,1.3995,1.3987,1.3863,1.4042,1.4338,1.4364,1.3987,1.3984,1.3982,0,1.4662,1.464,1.4679,1.4659,1.4559,1.458,1.454,1.4478,1.4467,1.4437,1.4428,1.4403,1.4388,1.4371,1.4272,1.42,1.4318,1.4197,1.4278,1.4281,1.4306,1.4305,1.4604,1.4308,1.4307,1.4307,1.4306,0,1.4877,1.4926,1.4781,1.4805,1.4856,1.4739,1.4793,1.4739,1.4686,1.4698,1.4578,1.4592,1.4462,1.4463,1.4387,1.4426,1.4421,1.4383,1.4361,1.4392,1.4397,1.4383,1.4367,1.4314,1.4312,1.4311,1.431,0,1.514,1.5045,1.5079,1.4982,1.496,1.5001,1.4919,1.4938,1.487,1.4887,1.4884,1.4778,1.4772,1.4674,1.4647,1.4596,1.4665,1.4622,1.4684,1.4669,1.4755,1.4748,1.5052,1.5086,1.4772,1.4776,1.4778,0,1.5282,1.5316,1.5224,1.5223,1.5188,1.5189,1.5177,1.5065,1.5057,1.4998,1.5025,1.5009,1.499,1.4989,1.4909,1.4889,1.4843,1.4951,1.4839,1.4868,1.4842,1.484,1.4842,1.4974,1.4978,1.4981,1.4984,0,1.5543,1.5496,1.5483,1.5455,1.5445,1.5417,1.5382,1.5389,1.5266,1.5264,1.5257,1.5243,1.5217,1.5203,1.5169,1.5127,1.5036,1.5021,1.5038,1.5068,1.5101,1.5082,1.4746,1.5013,1.501,1.5008,1.5007,1.5005,1.5747,1.5772,1.5711,1.5701,1.5664,1.5635,1.5648,1.5583,1.5575,1.5544,1.5479,1.5482,1.5427,1.5372,1.5339,1.5341,1.5285,1.5311,1.5317,1.5324,1.534,1.5104,1.5335,1.5334,1.5333,1.5332,1.5331,0,1.6001,1.5956,1.5949,1.5904,1.5898,1.5813,1.5771,1.5771,1.5775,1.5732,1.5717,1.571,1.5697,1.5619,1.5597,1.5613,1.5571,1.5611,1.5607,1.5599,1.5392,1.5378,1.5646,1.5646,1.5646,1.5646,1.5646,1.5646,1.6131,1.6167,1.6114,1.6131,1.6085,1.6087,1.607,1.6044,1.6008,1.6005,1.5994,1.5944,1.5886,1.586,1.5845,1.5822,1.5819,1.5874,1.5837,1.5644,1.5614,1.5585,1.5571,1.5874,1.5875,1.6043,1.6045,1.6046]}]]